CZ-6A DEB, 54513

Orbit data source: Space-Track

CZ-6A DEB, 54513 is space debris in SSO originally from a launch on Fri, 11 Nov 2022 UTC launched from the Taiyaun Space Center, China (TSC). Debris objects in space refer to the collection of defunct objects orbiting the Earth. Examples of debris include non-operational satellites, rocket bodies, and fragments generated from explosions, collisions, or faulty payload assembly.

Loading next visibility...
Identifier
54513, 2022-151JR
Orbit
SSO
Country
Flag of CNCN / PRC
Related business
Manufacturer
SAST
Mission
Spacecraft
Bus & Motor
Unknown
Mass
Unknown
Launch date (UTC)
2022-11-11 (4 years ago)
Launch vehicle
Unknown
Launch site
Taiyaun Space Center, China (TSC)
Object type
Payload
Rocket body
Debris
Shape & HBR
Unknown shape, 0.1 m
Radar Cross Section
Medium (>0.1 m² and <1 m²)

Expand to show TLE details & history
Last TLE update: 21 hours ago

TLE from 21 hours ago
0 CZ-6A DEB
1 54513U 22151JR  26235.30101241  .00000412  00000-0  12411-3 0  9998
2 54513  98.4816 248.4929 0149786 136.8445 224.4600 14.41487520198327
Epoch: 2026-08-23T07:13Z
TLE epoch observation values (Epoch: 2026-08-23T07:13:27.472Z)
Latitude
0.00005°
Longitude
168.52939°
Altitude
833.573 km
Speed
7.396 km/s
True Right ascension
16h 33m 58s
True Declination
0° 00' 00"
Sunlit
Object was in daylight at epoch
Visualization orbit readout
Latitude
Unknown
Longitude
Unknown
Altitude
Unknown
Speed
Unknown
Apparent Right ascension
Unknown
Apparent Declination
Unknown
Sunlit
N/A
Visualization observer readout
Local Sidereal Time
19:30:22
Azimuth
Unknown
Elevation
Unknown
Doppler factor
Unknown
Orbital elements
Apogee altitude
857.486 km
Perigee altitude
643.926 km
Semi-major axis
7,128.843 km
Eccentricity
0.01498
Inclination
98.4816°
RAAN
248.4929°
Arg. of periapsis
136.8445°
True anomaly
223.27375°
Mean anomaly
224.46°
Eccentric anomaly
223.86529°
Mean motion
3.60591 °/min
Orbital period
99.84 mins
BSTAR
0.00012411
Loading maneuver chart data...
Computing Atmospheric mass density...
Loading historical data...
Loading historical data...
Loading historical data...
Loading historical data...
Loading historical data...
Loading historical data...
Loading historical data...

Documentation

Showing up to 5 results
|